Homer, AK

5:05 AM AKDT on August 26, 2016 (GMT -0800)
Homer

Weather History for PAHO - February, 2012

Change the Weather History Date:

Tuesday, February 14, 2012

  Actual Average Record
Temperature  
Mean Temperature 28 °F -  
Max Temperature 34 °F 31 °F 48 °F (1970)
Min Temperature 23 °F 17 °F -7 °F (1954)
Degree Days  
Heating Degree Days 36    
Moisture  
Dew Point 25 °F    
Average Humidity 78    
Maximum Humidity 96    
Minimum Humidity 61    
Precipitation  
Precipitation 0.00 in - - ()
Sea Level Pressure  
Sea Level Pressure 29.71 in    
Wind  
Wind Speed 14 mph (ESE)    
Max Wind Speed 23 mph    
Max Gust Speed 31 mph    
Visibility 10 miles    
Events Snow    
Averages and records for this station are not official NWS values.
T = Trace of Precipitation, MM = Missing Value Source: NWS Daily Summary

Daily Weather History Graph

Daily Weather History Graph

Search for Another Location

Airport or City:

Trip Planner

Search our weather history database for the weather conditions in past years. The results will help you decide how hot, cold, wet, or windy it might be!

Date:

Astronomy

Feb. 14, 2012 Rise Set
Actual Time 8:45 AM AKST 5:55 PM AKST
Civil Twilight 8:02 AM AKST 6:38 PM AKST
Nautical Twilight 7:14 AM AKST 7:27 PM AKST
Astronomical Twilight 6:26 AM AKST 8:14 PM AKST
Moon 3:24 AM AKST (2/14) 10:23 AM AKST (2/14)
Length of Visible Light 10h 36m
Length of Day
9h 09m
Waning Gibbous, 48% of the Moon is Illuminated
Feb 14
Waning Gibbous
Feb 21
New
Feb 29
First Quarter
Mar 8
Full
Mar 14
Last Quarter

Hourly Weather History & Observations

Time (AKST) Temp. Windchill Dew Point Humidity Pressure Visibility Wind Dir Wind Speed Gust Speed Precip Events Conditions
12:18 AM 32.0 °F 19.2 °F 26.6 °F 80% 29.58 in 10.0 mi WSW 23.0 mph 29.9 mph N/A   Mostly Cloudy
12:35 AM 30.2 °F 16.8 °F 24.8 °F 80% 29.59 in 10.0 mi WSW 23.0 mph 31.1 mph N/A   Scattered Clouds
12:53 AM 30.9 °F 18.1 °F 25.0 °F 79% 29.61 in 10.0 mi WSW 21.9 mph 28.8 mph N/A   Partly Cloudy
1:53 AM 30.9 °F 19.1 °F 23.0 °F 72% 29.64 in 10.0 mi WSW 18.4 mph - N/A   Mostly Cloudy
3:53 AM 30.9 °F 21.2 °F 23.0 °F 72% 29.68 in 10.0 mi WSW 12.7 mph - N/A   Partly Cloudy
4:53 AM 30.0 °F 19.1 °F 21.9 °F 72% 29.68 in 10.0 mi WSW 15.0 mph - N/A   Clear
5:53 AM 30.0 °F 21.7 °F 24.1 °F 79% 29.70 in 10.0 mi SSW 9.2 mph - N/A   Clear
6:53 AM 30.0 °F 26.5 °F 23.0 °F 75% 29.71 in 10.0 mi SSE 3.5 mph - N/A   Scattered Clouds
7:53 AM 30.0 °F 25.2 °F 21.9 °F 72% 29.73 in 10.0 mi South 4.6 mph - N/A   Clear
8:53 AM 28.0 °F 24.2 °F 24.1 °F 85% 29.76 in 10.0 mi SSW 3.5 mph - N/A   Clear
9:53 AM 23.0 °F - 21.9 °F 96% 29.76 in 10.0 mi Calm Calm - N/A   Clear
10:53 AM 27.0 °F 18.0 °F 23.0 °F 85% 29.78 in 10.0 mi East 9.2 mph - N/A   Clear
11:53 AM 28.9 °F 23.9 °F 21.9 °F 75% 29.78 in 10.0 mi NE 4.6 mph - N/A   Clear
12:53 PM 32.0 °F 28.7 °F 19.9 °F 61% 29.79 in 10.0 mi Variable 3.5 mph - N/A   Mostly Cloudy
1:53 PM 30.9 °F 25.2 °F 24.1 °F 76% 29.80 in 10.0 mi East 5.8 mph - N/A   Overcast
2:53 PM 30.0 °F 23.2 °F 25.0 °F 82% 29.81 in 10.0 mi ENE 6.9 mph - N/A   Overcast
3:53 PM 30.9 °F 23.5 °F 21.9 °F 69% 29.81 in 10.0 mi NE 8.1 mph - N/A   Overcast
4:53 PM 30.9 °F 26.2 °F 25.0 °F 79% 29.80 in 10.0 mi East 4.6 mph - N/A   Overcast
5:53 PM 34.0 °F 26.0 °F 24.1 °F 67% 29.77 in 10.0 mi East 10.4 mph - N/A   Overcast
6:53 PM 33.1 °F 22.6 °F 26.1 °F 75% 29.75 in 10.0 mi East 16.1 mph - N/A   Overcast
7:53 PM 32.0 °F 26.4 °F 26.1 °F 79% 29.74 in 10.0 mi ENE 5.8 mph - N/A   Overcast
8:53 PM 34.0 °F 23.8 °F 26.1 °F 73% 29.71 in 10.0 mi East 16.1 mph 23.0 mph N/A   Overcast
9:53 PM 33.1 °F 21.9 °F 27.0 °F 78% 29.69 in 10.0 mi East 18.4 mph 21.9 mph N/A   Overcast
10:53 PM 32.0 °F 22.1 °F 28.9 °F 88% 29.66 in 9.0 mi East 13.8 mph - 0.00 in   Overcast
11:28 PM 32.0 °F 21.6 °F 28.4 °F 87% 29.64 in 10.0 mi ENE 15.0 mph - N/A   Overcast
11:35 PM 32.0 °F 20.8 °F 28.4 °F 87% 29.63 in 10.0 mi ENE 17.3 mph - N/A   Overcast
11:53 PM 32.0 °F 21.6 °F 28.9 °F 88% 29.64 in 3.0 mi ENE 15.0 mph - 0.00 in Snow Light Snow